Content
SEND FEEDBACK

Daily
Averages
Monthly
Summary
Switzerland

GENEVA, SWITZERLAND


Home > Europe > Switzerland
Elevation: 1364 feet     Latitude: 46 15N     Longitude: 006 08E

WEATHER
 
SELECT A DAY
Number of Records: 317,616;   Date Range: 7/1/96 - 12/24/14
 
SHARE

PRINT THIS DATA

[ ← Previous Day ]
WEATHER ALMANAC - JULY 22, 2014
[ Next Day → ]
[ °C ]   °F
Weather ElementAverageHighLow
Temperature65.1 °F71.6 °F (1:50 pm)60.8 °F (12:20 am)
Dewpoint60.9 °F62.6 °F (7:50 am)58 °F (2:00 pm)
Humidity85.6 %100 % (12:20 am)56 % (2:00 pm)
Barometer29.99 in30.04 in (12:20 am)29.96 in (5:00 am)
Wind Speed2.8 mph5.8 mph (12:20 pm)
Weather ElementAverage
Visibility8.6 mi
Wind DirectionENE (63.1 °)

Weather ElementTotal
Precipitation---
Cooling Degree Days1.2 (Base 65)
Growing Degree Days16.2 (Base 50)
Averaged from 70 records on July 22, 2014
WEATHER CONDITIONS BREAKOUT
WIND DIRECTION BREAKOUT
WEATHER BY HOUR - JULY 22, 2014
[ °C ]   °F
Local TimeTemperatureDewpointHumidityBarometerVisibilityWind DirectionWind SpeedGust SpeedPrecipitationEventsConditions
12:20 AM60.8 °F60.8 °F100 %30.04 in6.2 miVariable1.2 mphMostly Cloudy
12:50 AM60.8 °F60.8 °F100 %30.01 in6.2 miVariable2.3 mphMostly Cloudy
1:00 AM62.0 °F60.0 °F90 %30.00 inSSW (200°)2.3 mph
1:20 AM60.8 °F60.8 °F100 %30.01 in6.2 miVariable2.3 mphMostly Cloudy
1:50 AM60.8 °F60.8 °F100 %30.01 in6.2 miVariable2.3 mphMostly Cloudy
2:00 AM62.0 °F60.0 °F89 %29.98 in12.0 miWSW (240°)3.5 mphMostly Cloudy
2:20 AM60.8 °F60.8 °F100 %30.01 in4.3 miVariable3.5 mphRainRain Showers
2:50 AM60.8 °F60.8 °F100 %29.98 in6.2 miVariable2.3 mphMostly Cloudy
3:00 AM62.0 °F60.0 °F90 %29.97 inWSW (250°)2.3 mph
3:50 AM60.8 °F60.8 °F100 %29.98 in6.2 miVariable2.3 mphMostly Cloudy
4:00 AM62.0 °F60.0 °F90 %29.97 inCalm
4:20 AM60.8 °F60.8 °F100 %29.98 in6.2 miCalmMostly Cloudy
4:50 AM60.8 °F60.8 °F100 %29.98 in6.2 miVariable2.3 mphMostly Cloudy
5:00 AM62.0 °F60.0 °F90 %29.96 in7.0 miESE (110°)2.3 mphOvercast
5:20 AM60.8 °F60.8 °F100 %29.98 in6.2 miVariable1.2 mphMostly Cloudy
5:50 AM60.8 °F60.8 °F100 %29.98 in6.2 miCalmMostly Cloudy
6:00 AM62.0 °F60.0 °F90 %29.96 inEast (90°)2.3 mph
6:20 AM60.8 °F60.8 °F100 %29.98 in6.2 miCalmMostly Cloudy
6:50 AM60.8 °F60.8 °F100 %29.98 in6.2 miVariable2.3 mphMostly Cloudy
7:00 AM62.0 °F60.0 °F92 %29.97 inWest (270°)1.2 mph
7:20 AM60.8 °F60.8 °F100 %30.01 in6.2 miCalmMostly Cloudy
7:50 AM62.6 °F62.6 °F100 %30.01 in6.2 miVariable1.2 mphMostly Cloudy
8:00 AM63.0 °F60.0 °F89 %29.97 in9.0 miSW (230°)2.3 mphMist
8:20 AM62.6 °F62.6 °F100 %30.01 in6.2 miVariable2.3 mphMostly Cloudy
8:50 AM62.6 °F62.6 °F100 %30.01 in6.2 miVariable2.3 mphMostly Cloudy
9:00 AM64.0 °F61.0 °F88 %29.98 inNNW (340°)3.5 mph
9:20 AM62.6 °F62.6 °F100 %30.01 in6.2 miVariable1.2 mphMostly Cloudy
9:50 AM64.4 °F62.6 °F94 %30.01 in6.2 miVariable3.5 mphMostly Cloudy
10:00 AM64.0 °F60.0 °F84 %29.98 inWSW (250°)2.3 mph
10:20 AM66.2 °F62.6 °F88 %30.01 in6.2 miVariable2.3 mphMostly Cloudy
10:50 AM66.2 °F60.8 °F83 %30.01 in6.2 miVariable2.3 mphMostly Cloudy
11:00 AM65.0 °F61.0 °F84 %29.98 in31.0 miEast (100°)2.3 mphOvercast
11:20 AM64.4 °F62.6 °F94 %30.01 in6.2 miCalmMostly Cloudy
11:50 AM66.2 °F60.8 °F83 %30.01 in6.2 miWSW (240°)4.6 mphMostly Cloudy
12:00 PM66.0 °F59.0 °F73 %29.98 inSW (230°)3.5 mph
12:20 PM68.0 °F60.8 °F78 %30.01 in6.2 miSSW (200°)5.8 mphMostly Cloudy
12:50 PM69.8 °F60.8 °F73 %30.01 in6.2 miVariable2.3 mphMostly Cloudy
1:00 PM69.0 °F59.0 °F64 %29.98 inSouth (190°)4.6 mph
1:20 PM69.8 °F59.0 °F68 %30.01 in6.2 miVariable3.5 mphMostly Cloudy
1:50 PM71.6 °F59.0 °F64 %30.01 in6.2 miVariable3.5 mphMostly Cloudy
2:00 PM70.0 °F58.0 °F56 %29.96 in31.0 miWSW (240°)2.3 mphScattered Clouds
2:20 PM71.6 °F59.0 °F64 %30.01 in6.2 miVariable3.5 mphMostly Cloudy
2:50 PM71.6 °F59.0 °F64 %30.01 in6.2 miVariable2.3 mphMostly Cloudy
3:00 PM70.0 °F58.0 °F58 %29.96 inWest (270°)3.5 mph
3:20 PM71.6 °F60.8 °F69 %30.01 in6.2 miVariable3.5 mphMostly Cloudy
3:50 PM69.8 °F59.0 °F68 %30.01 in6.2 miENE (70°)5.8 mphOvercast
4:00 PM69.0 °F58.0 °F61 %29.96 inEast (80°)5.8 mph
4:20 PM69.8 °F60.8 °F73 %30.01 in6.2 miENE (70°)5.8 mphOvercast
4:50 PM69.8 °F60.8 °F73 %30.01 in6.2 miNE (50°)4.6 mphOvercast
5:00 PM70.0 °F61.0 °F65 %29.96 in31.0 miNE (50°)3.5 mphOvercast
5:20 PM69.8 °F60.8 °F73 %30.01 in6.2 miENE (70°)3.5 mphOvercast
5:50 PM69.8 °F60.8 °F73 %29.98 in6.2 miEast (80°)4.6 mphOvercast
6:00 PM68.0 °F61.0 °F73 %29.96 inNE (40°)4.6 mph
6:20 PM68.0 °F62.6 °F83 %30.01 in6.2 miNE (40°)3.5 mphOvercast
6:50 PM68.0 °F62.6 °F83 %30.01 in6.2 miNE (40°)4.6 mphOvercast
7:00 PM68.0 °F61.0 °F73 %29.96 inNNE (30°)5.8 mph
7:20 PM68.0 °F62.6 °F83 %30.01 in6.2 miNE (40°)5.8 mphOvercast
7:50 PM66.2 °F62.6 °F88 %30.01 in6.2 miENE (60°)5.8 mphOvercast
8:00 PM66.0 °F61.0 °F79 %29.97 in37.0 miNE (50°)5.8 mphOvercast
8:20 PM66.2 °F62.6 °F88 %30.01 in6.2 miNE (40°)4.6 mphOvercast
8:50 PM66.2 °F62.6 °F88 %30.01 in6.2 miVariable2.3 mphRainLight Rain
9:00 PM66.0 °F62.0 °F82 %29.98 inNorth (10°)3.5 mph
9:20 PM64.4 °F60.8 °F88 %30.01 in6.2 miVariable2.3 mphMostly Cloudy
9:50 PM64.4 °F62.6 °F94 %30.01 in6.2 miVariable3.5 mphMostly Cloudy
10:00 PM65.0 °F62.0 °F85 %29.99 inNNE (20°)3.5 mph
10:20 PM64.4 °F62.6 °F94 %30.01 in6.2 miVariable1.2 mphMostly Cloudy
10:50 PM64.4 °F62.6 °F94 %30.01 in6.2 miVariable1.2 mphOvercast
11:00 PM64.0 °F62.0 °F90 %29.99 in25.0 miCalmPartly Cloudy
11:20 PM62.6 °F62.6 °F100 %30.01 in6.2 miCalmMostly Cloudy
11:50 PM64.4 °F62.6 °F94 %30.01 in6.2 miVariable1.2 mphMostly Cloudy
Hourly data recorded from LSGG, located miles away from Geneva, Switzerland







STORIES FROM OUR PARTNERS